Вернуться в каталог

CZ-6A DEB

АктивенPO
NORAD 64637·DEBRIS·🇨🇳 China

Запущен Aug 6, 2024 с Taiyuan Satellite Launch Center

Loading…

Ближайшие Пролёты (ближайшие 24 часа)

TLE

СвежийSource: Space-Track

Эпоха: Sep 13, 2026, 23:40 UTC

1 64637U 24140AEB 26256.98661904  .00003973  00000-0  12753-2 0  9993
2 64637  89.0060 263.5020 0009392 187.0093 173.0979 14.39277006104178

Отслеживайте CZ-6A DEB в реальном времени с AllMySat

Download on the App Store